Time,TemperatureF,DewpointF,PressureIn,WindDirection,WindDirectionDegrees,WindSpeedMPH,WindSpeedGustMPH,Humidity,HourlyPrecipIn,Conditions,Clouds,dailyrainin,SoftwareType,DateUTC
2013-01-15 00:02:00,8.0,3.0,-100.00,SW,230,7.0,11.0,77,0.00,,,0.00,,2013-01-15 06:02:00,
2013-01-15 00:12:00,8.0,3.0,-100.00,SW,235,7.0,10.0,78,0.00,,,0.00,,2013-01-15 06:12:00,
2013-01-15 00:22:00,7.0,1.0,-100.00,WSW,245,7.0,9.0,79,0.00,,,0.00,,2013-01-15 06:22:00,
2013-01-15 00:32:00,7.0,1.0,-100.00,WSW,245,7.0,11.0,80,0.00,,,0.00,,2013-01-15 06:32:00,
2013-01-15 00:42:00,6.0,1.0,-100.00,WSW,240,9.0,11.0,80,0.00,,,0.00,,2013-01-15 06:42:00,
2013-01-15 00:52:00,6.0,1.0,-100.00,SW,235,6.0,10.0,81,0.00,,,0.00,,2013-01-15 06:52:00,
2013-01-15 01:02:00,5.0,1.0,-100.00,West,260,6.0,7.0,81,0.00,,,0.00,,2013-01-15 07:02:00,
2013-01-15 01:12:00,5.0,1.0,-100.00,WSW,250,7.0,8.0,81,0.00,,,0.00,,2013-01-15 07:12:00,
2013-01-15 01:22:00,5.0,0.0,-100.00,WSW,245,6.0,9.0,82,0.00,,,0.00,,2013-01-15 07:22:00,
2013-01-15 01:32:00,4.0,0.0,-100.00,WSW,250,5.0,7.0,82,0.00,,,0.00,,2013-01-15 07:32:00,
2013-01-15 01:42:00,4.0,0.0,-100.00,WSW,245,6.0,8.0,82,0.00,,,0.00,,2013-01-15 07:42:00,
2013-01-15 01:52:00,4.0,0.0,-100.00,WSW,240,6.0,9.0,83,0.00,,,0.00,,2013-01-15 07:52:00,
2013-01-15 02:02:00,3.0,0.0,-100.00,SW,235,6.0,9.0,83,0.00,,,0.00,,2013-01-15 08:02:00,
2013-01-15 02:12:00,4.0,0.0,-100.00,WSW,255,6.0,9.0,83,0.00,,,0.00,,2013-01-15 08:12:00,
2013-01-15 02:22:00,3.0,0.0,-100.00,WSW,250,6.0,9.0,83,0.00,,,0.00,,2013-01-15 08:22:00,
2013-01-15 02:32:00,3.0,0.0,-100.00,WSW,250,5.0,7.0,83,0.00,,,0.00,,2013-01-15 08:32:00,
2013-01-15 02:42:00,3.0,0.0,-100.00,West,260,6.0,7.0,84,0.00,,,0.00,,2013-01-15 08:42:00,
2013-01-15 02:52:00,2.0,0.0,-100.00,West,280,7.0,9.0,84,0.00,,,0.00,,2013-01-15 08:52:00,
2013-01-15 03:02:00,3.0,0.0,-100.00,WNW,290,7.0,8.0,84,0.00,,,0.00,,2013-01-15 09:02:00,
2013-01-15 03:12:00,3.0,0.0,-100.00,WNW,295,7.0,9.0,84,0.00,,,0.00,,2013-01-15 09:12:00,
2013-01-15 03:22:00,2.0,0.0,-100.00,WNW,290,7.0,7.0,83,0.00,,,0.00,,2013-01-15 09:22:00,
2013-01-15 03:33:00,3.0,0.0,-100.00,SW,225,4.0,7.0,83,0.00,,,0.00,,2013-01-15 09:33:00,
2013-01-15 03:42:00,1.0,-4.0,-100.00,SW,225,6.0,7.0,83,0.00,,,0.00,,2013-01-15 09:42:00,
2013-01-15 03:52:00,0.0,-4.0,-100.00,SW,220,6.0,7.0,83,0.00,,,0.00,,2013-01-15 09:52:00,
2013-01-15 04:02:00,0.0,-4.0,-100.00,SW,230,6.0,6.0,83,0.00,,,0.00,,2013-01-15 10:02:00,
2013-01-15 04:11:00,1.0,-4.0,-100.00,SW,230,3.0,7.0,83,0.00,,,0.00,,2013-01-15 10:11:00,
2013-01-15 04:22:00,0.0,-4.0,-100.00,SSW,210,5.0,7.0,83,0.00,,,0.00,,2013-01-15 10:22:00,
2013-01-15 04:32:00,0.0,-4.0,-100.00,SW,225,4.0,6.0,83,0.00,,,0.00,,2013-01-15 10:32:00,
2013-01-15 04:42:00,0.0,-4.0,-100.00,SW,215,6.0,7.0,83,0.00,,,0.00,,2013-01-15 10:42:00,
2013-01-15 04:52:00,1.0,-2.0,-100.00,SSW,200,6.0,6.0,83,0.00,,,0.00,,2013-01-15 10:52:00,
2013-01-15 05:02:00,1.0,-4.0,-100.00,SSW,205,7.0,7.0,83,0.00,,,0.00,,2013-01-15 11:02:00,
2013-01-15 05:12:00,1.0,-2.0,-100.00,SW,215,6.0,8.0,83,0.00,,,0.00,,2013-01-15 11:12:00,
2013-01-15 05:22:00,2.0,-2.0,-100.00,SSW,210,5.0,7.0,83,0.00,,,0.00,,2013-01-15 11:22:00,
2013-01-15 05:32:00,2.0,-2.0,-100.00,SSW,210,5.0,9.0,83,0.00,,,0.00,,2013-01-15 11:32:00,
2013-01-15 05:42:00,2.0,-2.0,-100.00,South,190,4.0,7.0,83,0.00,,,0.00,,2013-01-15 11:42:00,
2013-01-15 05:52:00,2.0,-2.0,-100.00,South,170,4.0,6.0,83,0.00,,,0.00,,2013-01-15 11:52:00,
2013-01-15 06:03:00,2.0,0.0,-100.00,SSE,160,4.0,5.0,83,0.00,,,0.00,,2013-01-15 12:03:00,
2013-01-15 06:12:00,2.0,0.0,-100.00,South,190,6.0,7.0,83,0.00,,,0.00,,2013-01-15 12:12:00,
2013-01-15 06:22:00,3.0,0.0,-100.00,SSW,195,6.0,9.0,83,0.00,,,0.00,,2013-01-15 12:22:00,
2013-01-15 06:33:00,4.0,0.0,-100.00,SSW,205,4.0,6.0,84,0.00,,,0.00,,2013-01-15 12:33:00,
2013-01-15 06:42:00,5.0,1.0,-100.00,SW,220,7.0,10.0,84,0.00,,,0.00,,2013-01-15 12:42:00,
2013-01-15 06:53:00,6.0,1.0,-100.00,SSW,200,8.0,12.0,84,0.00,,,0.00,,2013-01-15 12:53:00,
2013-01-15 07:03:00,6.0,3.0,-100.00,SSW,205,7.0,9.0,84,0.00,,,0.00,,2013-01-15 13:03:00,
2013-01-15 07:12:00,6.0,3.0,-100.00,SSW,210,6.0,9.0,84,0.00,,,0.00,,2013-01-15 13:12:00,
2013-01-15 07:23:00,6.0,3.0,-100.00,SSW,195,4.0,7.0,84,0.00,,,0.00,,2013-01-15 13:23:00,
2013-01-15 07:33:00,6.0,1.0,-100.00,South,175,3.0,4.0,84,0.00,,,0.00,,2013-01-15 13:33:00,
2013-01-15 07:42:00,6.0,1.0,-100.00,South,190,7.0,8.0,84,0.00,,,0.00,,2013-01-15 13:42:00,
2013-01-15 07:53:00,6.0,3.0,-100.00,SSW,200,6.0,8.0,84,0.00,,,0.00,,2013-01-15 13:53:00,
2013-01-15 08:02:00,7.0,3.0,-100.00,SSW,195,6.0,7.0,85,0.00,,,0.00,,2013-01-15 14:02:00,
2013-01-15 08:12:00,7.0,3.0,-100.00,SSW,195,5.0,7.0,85,0.00,,,0.00,,2013-01-15 14:12:00,
2013-01-15 08:23:00,7.0,3.0,-100.00,South,180,6.0,6.0,85,0.00,,,0.00,,2013-01-15 14:23:00,
2013-01-15 08:33:00,7.0,3.0,-100.00,South,180,5.0,7.0,85,0.00,,,0.00,,2013-01-15 14:33:00,
2013-01-15 08:43:00,8.0,3.0,-100.00,South,190,5.0,7.0,85,0.00,,,0.00,,2013-01-15 14:43:00,
2013-01-15 08:53:00,8.0,5.0,-100.00,South,180,7.0,10.0,85,0.00,,,0.00,,2013-01-15 14:53:00,
2013-01-15 09:03:00,8.0,5.0,-100.00,South,190,7.0,9.0,84,0.00,,,0.00,,2013-01-15 15:03:00,
2013-01-15 09:12:00,9.0,5.0,-100.00,SSW,195,9.0,11.0,84,0.00,,,0.00,,2013-01-15 15:12:00,
2013-01-15 09:23:00,9.0,5.0,-100.00,South,190,11.0,13.0,83,0.00,,,0.00,,2013-01-15 15:23:00,
2013-01-15 09:33:00,10.0,5.0,-100.00,SSW,195,9.0,13.0,82,0.00,,,0.00,,2013-01-15 15:33:00,
2013-01-15 09:43:00,10.0,5.0,-100.00,SSW,195,7.0,11.0,81,0.00,,,0.00,,2013-01-15 15:43:00,
2013-01-15 09:52:00,11.0,5.0,-100.00,SSW,200,8.0,11.0,80,0.00,,,0.00,,2013-01-15 15:52:00,
2013-01-15 10:03:00,12.0,7.0,-100.00,SSW,195,7.0,9.0,77,0.00,,,0.00,,2013-01-15 16:03:00,
2013-01-15 10:12:00,13.0,7.0,-100.00,SSW,205,11.0,16.0,74,0.00,,,0.00,,2013-01-15 16:12:00,
2013-01-15 10:22:00,14.0,7.0,-100.00,SSW,205,11.0,15.0,71,0.00,,,0.00,,2013-01-15 16:22:00,
2013-01-15 10:33:00,14.0,5.0,-100.00,SSW,205,12.0,17.0,69,0.00,,,0.00,,2013-01-15 16:33:00,
2013-01-15 10:42:00,14.0,5.0,-100.00,SSW,210,11.0,14.0,67,0.00,,,0.00,,2013-01-15 16:42:00,
2013-01-15 10:53:00,15.0,5.0,-100.00,SSW,210,13.0,16.0,65,0.00,,,0.00,,2013-01-15 16:53:00,
2013-01-15 11:03:00,15.0,5.0,-100.00,SW,215,12.0,16.0,64,0.00,,,0.00,,2013-01-15 17:03:00,
2013-01-15 11:12:00,15.0,5.0,-100.00,SW,215,14.0,18.0,64,0.00,,,0.00,,2013-01-15 17:12:00,
2013-01-15 11:22:00,16.0,5.0,-100.00,SW,215,11.0,15.0,63,0.00,,,0.00,,2013-01-15 17:22:00,
2013-01-15 11:33:00,16.0,5.0,-100.00,SW,220,16.0,19.0,61,0.00,,,0.00,,2013-01-15 17:33:00,
2013-01-15 11:42:00,16.0,5.0,-100.00,SW,230,17.0,21.0,59,0.00,,,0.00,,2013-01-15 17:42:00,
2013-01-15 11:53:00,16.0,5.0,-100.00,SW,220,14.0,22.0,59,0.00,,,0.00,,2013-01-15 17:53:00,
2013-01-15 12:03:00,16.0,5.0,-100.00,SW,220,13.0,19.0,59,0.00,,,0.00,,2013-01-15 18:03:00,
2013-01-15 12:12:00,16.0,5.0,-100.00,SW,220,15.0,19.0,59,0.00,,,0.00,,2013-01-15 18:12:00,
2013-01-15 12:23:00,17.0,5.0,-100.00,SW,230,12.0,19.0,58,0.00,,,0.00,,2013-01-15 18:23:00,
2013-01-15 12:33:00,17.0,5.0,-100.00,SW,215,13.0,19.0,57,0.00,,,0.00,,2013-01-15 18:33:00,
2013-01-15 12:42:00,17.0,5.0,-100.00,SW,235,15.0,19.0,56,0.00,,,0.00,,2013-01-15 18:42:00,
2013-01-15 12:53:00,18.0,5.0,-100.00,WSW,245,11.0,16.0,55,0.00,,,0.00,,2013-01-15 18:53:00,
2013-01-15 13:03:00,18.0,5.0,-100.00,SW,235,14.0,18.0,53,0.00,,,0.00,,2013-01-15 19:03:00,
2013-01-15 13:12:00,18.0,3.0,-100.00,WSW,245,11.0,18.0,53,0.00,,,0.00,,2013-01-15 19:12:00,
2013-01-15 13:22:00,19.0,5.0,-100.00,SW,225,13.0,16.0,53,0.00,,,0.00,,2013-01-15 19:22:00,
2013-01-15 13:33:00,19.0,5.0,-100.00,SW,215,11.0,16.0,52,0.00,,,0.00,,2013-01-15 19:33:00,
2013-01-15 13:42:00,19.0,5.0,-100.00,SW,230,15.0,18.0,51,0.00,,,0.00,,2013-01-15 19:42:00,
2013-01-15 13:52:00,19.0,5.0,-100.00,SW,230,15.0,21.0,51,0.00,,,0.00,,2013-01-15 19:52:00,
2013-01-15 14:03:00,20.0,5.0,-100.00,SW,215,14.0,20.0,51,0.00,,,0.00,,2013-01-15 20:03:00,
2013-01-15 14:12:00,19.0,3.0,-100.00,SW,215,15.0,21.0,51,0.00,,,0.00,,2013-01-15 20:12:00,
2013-01-15 14:23:00,20.0,5.0,-100.00,SW,220,11.0,19.0,51,0.00,,,0.00,,2013-01-15 20:23:00,
2013-01-15 14:33:00,20.0,5.0,-100.00,SW,220,17.0,21.0,51,0.00,,,0.00,,2013-01-15 20:33:00,
2013-01-15 14:43:00,20.0,5.0,-100.00,SW,230,14.0,21.0,50,0.00,,,0.00,,2013-01-15 20:43:00,
2013-01-15 14:52:00,20.0,5.0,-100.00,SW,230,13.0,17.0,50,0.00,,,0.00,,2013-01-15 20:52:00,
2013-01-15 15:03:00,21.0,5.0,-100.00,SW,225,12.0,17.0,50,0.00,,,0.00,,2013-01-15 21:03:00,
2013-01-15 15:12:00,20.0,5.0,-100.00,SW,225,12.0,17.0,50,0.00,,,0.00,,2013-01-15 21:12:00,
2013-01-15 15:23:00,21.0,5.0,-100.00,SW,225,12.0,17.0,51,0.00,,,0.00,,2013-01-15 21:23:00,
2013-01-15 15:33:00,20.0,5.0,-100.00,SW,225,14.0,17.0,51,0.00,,,0.00,,2013-01-15 21:33:00,
2013-01-15 15:43:00,20.0,5.0,-100.00,SW,230,11.0,19.0,52,0.00,,,0.00,,2013-01-15 21:43:00,
2013-01-15 15:52:00,20.0,5.0,-100.00,SW,215,11.0,16.0,53,0.00,,,0.00,,2013-01-15 21:52:00,
2013-01-15 16:03:00,20.0,7.0,-100.00,SSW,210,11.0,16.0,55,0.00,,,0.00,,2013-01-15 22:03:00,
2013-01-15 16:12:00,19.0,7.0,-100.00,SSW,210,10.0,16.0,56,0.00,,,0.00,,2013-01-15 22:12:00,
2013-01-15 16:23:00,19.0,7.0,-100.00,SSW,205,12.0,16.0,56,0.00,,,0.00,,2013-01-15 22:23:00,
2013-01-15 16:33:00,19.0,7.0,-100.00,SSW,210,12.0,15.0,57,0.00,,,0.00,,2013-01-15 22:33:00,
2013-01-15 16:43:00,18.0,7.0,-100.00,SSW,210,14.0,19.0,58,0.00,,,0.00,,2013-01-15 22:43:00,
2013-01-15 16:52:00,18.0,7.0,-100.00,SSW,210,14.0,18.0,59,0.00,,,0.00,,2013-01-15 22:52:00,
2013-01-15 17:02:00,18.0,7.0,-100.00,SW,215,12.0,17.0,60,0.00,,,0.00,,2013-01-15 23:02:00,
2013-01-15 17:12:00,18.0,7.0,-100.00,SSW,210,16.0,20.0,61,0.00,,,0.00,,2013-01-15 23:12:00,
2013-01-15 17:22:00,17.0,7.0,-100.00,SW,215,13.0,19.0,63,0.00,,,0.00,,2013-01-15 23:22:00,
2013-01-15 17:32:00,17.0,7.0,-100.00,SW,220,14.0,20.0,64,0.00,,,0.00,,2013-01-15 23:32:00,
2013-01-15 17:42:00,17.0,7.0,-100.00,SW,215,15.0,20.0,64,0.00,,,0.00,,2013-01-15 23:42:00,
2013-01-15 17:53:00,17.0,9.0,-100.00,SW,220,13.0,20.0,65,0.00,,,0.00,,2013-01-15 23:53:00,
2013-01-15 18:02:00,17.0,9.0,-100.00,SW,220,16.0,20.0,66,0.00,,,0.00,,2013-01-16 00:02:00,
2013-01-15 18:12:00,17.0,9.0,-100.00,SW,215,17.0,22.0,67,0.00,,,0.00,,2013-01-16 00:12:00,
2013-01-15 18:22:00,17.0,9.0,-100.00,SW,220,16.0,23.0,68,0.00,,,0.00,,2013-01-16 00:22:00,
2013-01-15 18:32:00,17.0,9.0,-100.00,SW,215,16.0,21.0,69,0.00,,,0.00,,2013-01-16 00:32:00,
2013-01-15 18:43:00,18.0,9.0,-100.00,SW,220,16.0,21.0,69,0.00,,,0.00,,2013-01-16 00:43:00,
2013-01-15 18:52:00,17.0,9.0,-100.00,SW,220,15.0,19.0,70,0.00,,,0.00,,2013-01-16 00:52:00,
2013-01-15 19:02:00,17.0,9.0,-100.00,SW,215,14.0,22.0,70,0.00,,,0.00,,2013-01-16 01:02:00,
2013-01-15 19:12:00,18.0,9.0,-100.00,SSW,210,16.0,21.0,70,0.00,,,0.00,,2013-01-16 01:12:00,
2013-01-15 19:22:00,18.0,9.0,-100.00,SW,215,16.0,24.0,70,0.00,,,0.00,,2013-01-16 01:22:00,
2013-01-15 19:33:00,18.0,9.0,-100.00,SW,215,16.0,21.0,69,0.00,,,0.00,,2013-01-16 01:33:00,
2013-01-15 19:42:00,18.0,9.0,-100.00,SW,230,16.0,22.0,68,0.00,,,0.00,,2013-01-16 01:42:00,
2013-01-15 19:52:00,18.0,9.0,-100.00,SW,220,18.0,24.0,66,0.00,,,0.00,,2013-01-16 01:52:00,
2013-01-15 20:02:00,18.0,9.0,-100.00,SW,220,19.0,24.0,65,0.00,,,0.00,,2013-01-16 02:02:00,
2013-01-15 20:12:00,19.0,9.0,-100.00,SW,230,19.0,24.0,65,0.00,,,0.00,,2013-01-16 02:12:00,
2013-01-15 20:22:00,19.0,9.0,-100.00,SW,220,17.0,25.0,65,0.00,,,0.00,,2013-01-16 02:22:00,
2013-01-15 20:32:00,19.0,9.0,-100.00,SW,220,19.0,27.0,64,0.00,,,0.00,,2013-01-16 02:32:00,
2013-01-15 20:42:00,19.0,9.0,-100.00,SW,225,17.0,26.0,64,0.00,,,0.00,,2013-01-16 02:42:00,
2013-01-15 20:52:00,19.0,9.0,-100.00,SW,225,22.0,27.0,63,0.00,,,0.00,,2013-01-16 02:52:00,
2013-01-15 21:02:00,19.0,9.0,-100.00,SW,225,17.0,23.0,63,0.00,,,0.00,,2013-01-16 03:02:00,
2013-01-15 21:12:00,19.0,9.0,-100.00,SW,230,18.0,26.0,64,0.00,,,0.00,,2013-01-16 03:12:00,
2013-01-15 21:22:00,19.0,9.0,-100.00,SW,220,20.0,27.0,63,0.00,,,0.00,,2013-01-16 03:22:00,
2013-01-15 21:32:00,19.0,9.0,-100.00,SW,230,21.0,26.0,63,0.00,,,0.00,,2013-01-16 03:32:00,
2013-01-15 21:42:00,19.0,9.0,-100.00,SW,225,17.0,27.0,63,0.00,,,0.00,,2013-01-16 03:42:00,
2013-01-15 21:52:00,20.0,9.0,-100.00,SW,225,17.0,26.0,62,0.00,,,0.00,,2013-01-16 03:52:00,
2013-01-15 22:02:00,20.0,9.0,-100.00,SW,225,21.0,27.0,62,0.00,,,0.00,,2013-01-16 04:02:00,
2013-01-15 22:12:00,20.0,9.0,-100.00,SW,220,19.0,29.0,62,0.00,,,0.00,,2013-01-16 04:12:00,
2013-01-15 22:22:00,21.0,10.0,-100.00,SW,220,20.0,24.0,62,0.00,,,0.00,,2013-01-16 04:22:00,
2013-01-15 22:32:00,21.0,10.0,-100.00,SW,225,17.0,26.0,62,0.00,,,0.00,,2013-01-16 04:32:00,
2013-01-15 22:42:00,21.0,10.0,-100.00,SW,230,19.0,26.0,62,0.00,,,0.00,,2013-01-16 04:42:00,
2013-01-15 22:52:00,22.0,10.0,-100.00,SW,225,16.0,28.0,62,0.00,,,0.00,,2013-01-16 04:52:00,
2013-01-15 23:03:00,22.0,10.0,-100.00,SW,220,21.0,29.0,62,0.00,,,0.00,,2013-01-16 05:03:00,
2013-01-15 23:12:00,22.0,10.0,-100.00,SW,225,18.0,26.0,63,0.00,,,0.00,,2013-01-16 05:12:00,
2013-01-15 23:22:00,22.0,12.0,-100.00,SW,225,20.0,24.0,63,0.00,,,0.00,,2013-01-16 05:22:00,
2013-01-15 23:32:00,22.0,12.0,-100.00,SW,230,16.0,25.0,63,0.00,,,0.00,,2013-01-16 05:32:00,
2013-01-15 23:42:00,22.0,12.0,-100.00,SW,220,16.0,23.0,64,0.00,,,0.00,,2013-01-16 05:42:00,
2013-01-15 23:53:00,22.0,12.0,-100.00,SW,225,21.0,25.0,65,0.00,,,0.00,,2013-01-16 05:53:00,